FENGYUN 1C DEB, 45526

Orbit data source: Space-Track

FENGYUN 1C DEB, 45526 is space debris in SSO originally from a launch on Mon, 10 May 1999 UTC launched from the Taiyaun Space Center, China (TSC). Fengyun 1C debris stems from the Chinese weather satellite Fengyun-1C, which was intentionally destroyed by a Chinese anti-satellite missile in 2007. This event dramatically increased the amount of space debris, with thousands of trackable fragments posing hazards to satellites and human spaceflight. The Fengyun 1C debris cloud has become a focal point in discussions about space sustainability and the need for international regulations to prevent the creation of new debris.

Loading next visibility...
Identifier
45526, 1999-025EYR
Orbit
SSO
Country
Flag of CNCN / PRC
Related business
Manufacturer
Unknown
Mission
Spacecraft
Bus & Motor
Unknown
Mass
Unknown
Launch date (UTC)
1999-05-10 (27 years ago)
Launch vehicle
Unknown
Launch site
Taiyaun Space Center, China (TSC)
Object type
Payload
Rocket body
Debris
Shape & HBR
Unknown shape, 0.1 m
Radar Cross Section
Small (<0.1 m²)

Expand to show TLE details & history
Last TLE update: 11 hours ago

TLE from 11 hours ago
0 FENGYUN 1C DEB
1 45526U 99025EYR 26209.19361130  .00003004  00000-0  12215-2 0  9990
2 45526  98.7518 286.4852 0050124 280.4429  79.1105 14.27615424466205
Epoch: 2026-07-28T04:38Z
TLE epoch observation values (Epoch: 2026-07-28T04:38:48.016Z)
Latitude
-0.00004°
Longitude
-89.0812°
Altitude
796.012 km
Speed
7.459 km/s
True Right ascension
19h 05m 56s
True Declination
0° 00' 00"
Sunlit
Object was in full shadow at epoch
Visualization orbit readout
Latitude
Unknown
Longitude
Unknown
Altitude
Unknown
Speed
Unknown
Apparent Right ascension
Unknown
Apparent Declination
Unknown
Sunlit
N/A
Visualization observer readout
Local Sidereal Time
04:46:45
Azimuth
Unknown
Elevation
Unknown
Doppler factor
Unknown
Orbital elements
Apogee altitude
832.827 km
Perigee altitude
760.899 km
Semi-major axis
7,175 km
Eccentricity
0.00501
Inclination
98.7518°
RAAN
286.4852°
Arg. of periapsis
280.4429°
True anomaly
79.6752°
Mean anomaly
79.1105°
Eccentric anomaly
79.39278°
Mean motion
3.57117 °/min
Orbital period
100.81 mins
BSTAR
0.0012215
Loading maneuver chart data...
Computing Atmospheric mass density...

Documentation

Showing up to 5 results
|